Time,TemperatureF,DewpointF,PressureIn,WindDirection,WindDirectionDegrees,WindSpeedMPH,WindSpeedGustMPH,Humidity,HourlyPrecipIn,Conditions,Clouds,dailyrainin,SoftwareType,DateUTC
2013-04-18 00:02:00,76.0,66.0,29.80,SE,141,10.0,-999.0,71,-99.99,,,-99.99,,2013-04-18 05:02:00,
2013-04-18 00:12:00,76.0,66.0,29.80,SSE,160,10.0,-999.0,72,-99.99,,,-99.99,,2013-04-18 05:12:00,
2013-04-18 00:22:00,76.0,66.0,29.80,SSE,160,10.0,-999.0,72,-99.99,,,-99.99,,2013-04-18 05:22:00,
2013-04-18 00:32:00,76.0,66.0,29.80,SSE,161,11.0,-999.0,72,-99.99,,,-99.99,,2013-04-18 05:32:00,
2013-04-18 00:42:00,75.0,66.0,29.80,SSE,152,11.0,-999.0,73,-99.99,,,-99.99,,2013-04-18 05:42:00,
2013-04-18 00:52:00,75.0,66.0,29.80,SSE,152,11.0,-999.0,73,-99.99,,,-99.99,,2013-04-18 05:52:00,
2013-04-18 01:02:00,75.0,66.0,29.80,South,175,10.0,-999.0,73,-99.99,,,-99.99,,2013-04-18 06:02:00,
2013-04-18 01:12:00,75.0,66.0,29.80,South,175,10.0,-999.0,73,-99.99,,,-99.99,,2013-04-18 06:12:00,
2013-04-18 01:22:00,75.0,66.0,29.79,SSE,160,10.0,-999.0,73,-99.99,,,-99.99,,2013-04-18 06:22:00,
2013-04-18 01:32:00,75.0,66.0,29.80,SSW,194,11.0,-999.0,73,-99.99,,,-99.99,,2013-04-18 06:32:00,
2013-04-18 01:42:00,75.0,66.0,29.79,SSE,165,9.0,-999.0,74,-99.99,,,-99.99,,2013-04-18 06:42:00,
2013-04-18 01:52:00,75.0,66.0,29.79,SSE,165,9.0,-999.0,74,-99.99,,,-99.99,,2013-04-18 06:52:00,
2013-04-18 02:02:00,75.0,66.0,29.78,South,169,10.0,-999.0,74,-99.99,,,-99.99,,2013-04-18 07:02:00,
2013-04-18 02:12:00,75.0,66.0,29.77,SSE,151,10.0,-999.0,74,-99.99,,,-99.99,,2013-04-18 07:12:00,
2013-04-18 02:22:00,75.0,66.0,29.77,SSE,151,10.0,-999.0,74,-99.99,,,-99.99,,2013-04-18 07:22:00,
2013-04-18 02:32:00,75.0,67.0,29.77,South,184,10.0,-999.0,75,-99.99,,,-99.99,,2013-04-18 07:32:00,
2013-04-18 02:42:00,75.0,67.0,29.76,South,171,10.0,-999.0,75,-99.99,,,-99.99,,2013-04-18 07:42:00,
2013-04-18 02:52:00,75.0,67.0,29.76,South,171,10.0,-999.0,75,-99.99,,,-99.99,,2013-04-18 07:52:00,
2013-04-18 03:02:00,75.0,67.0,29.76,SE,134,10.0,-999.0,75,-99.99,,,-99.99,,2013-04-18 08:02:00,
2013-04-18 03:12:00,74.0,66.0,29.75,SE,145,10.0,-999.0,75,-99.99,,,-99.99,,2013-04-18 08:12:00,
2013-04-18 03:22:00,74.0,66.0,29.75,SE,145,10.0,-999.0,75,-99.99,,,-99.99,,2013-04-18 08:22:00,
2013-04-18 03:32:00,74.0,66.0,29.75,South,173,10.0,-999.0,75,-99.99,,,-99.99,,2013-04-18 08:32:00,
2013-04-18 03:42:00,74.0,66.0,29.75,SSE,166,10.0,-999.0,75,-99.99,,,-99.99,,2013-04-18 08:42:00,
2013-04-18 03:52:00,74.0,66.0,29.75,SSE,166,10.0,-999.0,75,-99.99,,,-99.99,,2013-04-18 08:52:00,
2013-04-18 04:02:00,75.0,66.0,29.75,SSE,148,10.0,-999.0,74,-99.99,,,-99.99,,2013-04-18 09:02:00,
2013-04-18 04:12:00,74.0,66.0,29.74,South,171,11.0,-999.0,75,-99.99,,,-99.99,,2013-04-18 09:12:00,
2013-04-18 04:22:00,74.0,66.0,29.74,South,171,11.0,-999.0,75,-99.99,,,-99.99,,2013-04-18 09:22:00,
2013-04-18 04:32:00,74.0,66.0,29.73,SSE,163,7.0,-999.0,75,-99.99,,,-99.99,,2013-04-18 09:32:00,
2013-04-18 04:42:00,74.0,66.0,29.74,SSW,202,7.0,-999.0,76,-99.99,,,-99.99,,2013-04-18 09:42:00,
2013-04-18 04:53:00,74.0,66.0,29.74,SSW,202,7.0,-999.0,76,-99.99,,,-99.99,,2013-04-18 09:53:00,
2013-04-18 05:03:00,73.0,65.0,29.74,SW,219,9.0,-999.0,76,-99.99,,,-99.99,,2013-04-18 10:03:00,
2013-04-18 05:12:00,73.0,65.0,29.74,SW,219,9.0,-999.0,76,-99.99,,,-99.99,,2013-04-18 10:12:00,
2013-04-18 05:23:00,73.0,65.0,29.75,South,179,7.0,-999.0,77,-99.99,,,-99.99,,2013-04-18 10:23:00,
2013-04-18 05:32:00,73.0,66.0,29.75,SW,217,6.0,-999.0,78,-99.99,,,-99.99,,2013-04-18 10:32:00,
2013-04-18 05:42:00,73.0,66.0,29.75,SW,217,6.0,-999.0,78,-99.99,,,-99.99,,2013-04-18 10:42:00,
2013-04-18 05:52:00,73.0,65.0,29.75,South,173,10.0,-999.0,77,-99.99,,,-99.99,,2013-04-18 10:52:00,
2013-04-18 06:02:00,73.0,65.0,29.75,SSW,203,8.0,-999.0,77,-99.99,,,-99.99,,2013-04-18 11:02:00,
2013-04-18 06:12:00,72.0,65.0,29.75,SSW,213,7.0,-999.0,78,-99.99,,,-99.99,,2013-04-18 11:12:00,
2013-04-18 06:22:00,72.0,65.0,29.75,SSW,213,7.0,-999.0,78,-99.99,,,-99.99,,2013-04-18 11:22:00,
2013-04-18 06:32:00,72.0,64.0,29.76,SW,214,7.0,-999.0,77,-99.99,,,-99.99,,2013-04-18 11:32:00,
2013-04-18 06:42:00,72.0,64.0,29.76,SW,214,7.0,-999.0,77,-99.99,,,-99.99,,2013-04-18 11:42:00,
2013-04-18 06:52:00,73.0,65.0,29.75,SSW,204,9.0,-999.0,76,-99.99,,,-99.99,,2013-04-18 11:52:00,
2013-04-18 07:02:00,73.0,65.0,29.76,South,172,8.0,-999.0,76,-99.99,,,-99.99,,2013-04-18 12:02:00,
2013-04-18 07:12:00,73.0,65.0,29.76,South,172,8.0,-999.0,76,-99.99,,,-99.99,,2013-04-18 12:12:00,
2013-04-18 07:22:00,73.0,65.0,29.76,SSE,155,10.0,-999.0,75,-99.99,,,-99.99,,2013-04-18 12:22:00,
2013-04-18 07:32:00,73.0,64.0,29.75,SSE,167,12.0,-999.0,74,-99.99,,,-99.99,,2013-04-18 12:32:00,
2013-04-18 07:42:00,73.0,64.0,29.75,SSE,167,12.0,-999.0,74,-99.99,,,-99.99,,2013-04-18 12:42:00,
2013-04-18 07:52:00,73.0,65.0,29.75,SSE,165,11.0,-999.0,75,-99.99,,,-99.99,,2013-04-18 12:52:00,
2013-04-18 08:02:00,73.0,64.0,29.75,SSE,164,12.0,-999.0,74,-99.99,,,-99.99,,2013-04-18 13:02:00,
2013-04-18 08:12:00,73.0,64.0,29.75,South,176,10.0,-999.0,74,-99.99,,,-99.99,,2013-04-18 13:12:00,
2013-04-18 08:22:00,73.0,64.0,29.75,South,176,10.0,-999.0,74,-99.99,,,-99.99,,2013-04-18 13:22:00,
2013-04-18 08:32:00,73.0,64.0,29.74,SSW,194,13.0,-999.0,73,-99.99,,,-99.99,,2013-04-18 13:32:00,
2013-04-18 08:42:00,74.0,64.0,29.74,SSE,165,10.0,-999.0,72,-99.99,,,-99.99,,2013-04-18 13:42:00,
2013-04-18 08:53:00,74.0,64.0,29.74,SSE,165,10.0,-999.0,72,-99.99,,,-99.99,,2013-04-18 13:53:00,
2013-04-18 09:02:00,74.0,64.0,29.72,South,172,14.0,-999.0,70,-99.99,,,-99.99,,2013-04-18 14:02:00,
2013-04-18 09:12:00,74.0,63.0,29.71,SSE,159,19.0,-999.0,69,-99.99,,,-99.99,,2013-04-18 14:12:00,
2013-04-18 09:22:00,74.0,63.0,29.71,SSE,159,19.0,-999.0,69,-99.99,,,-99.99,,2013-04-18 14:22:00,
2013-04-18 09:32:00,75.0,64.0,29.72,SSW,199,18.0,-999.0,68,-99.99,,,-99.99,,2013-04-18 14:32:00,
2013-04-18 09:42:00,75.0,64.0,29.72,SSW,199,18.0,-999.0,68,-99.99,,,-99.99,,2013-04-18 14:42:00,
2013-04-18 09:52:00,75.0,63.0,29.72,South,186,18.0,-999.0,66,-99.99,,,-99.99,,2013-04-18 14:52:00,
2013-04-18 10:02:00,76.0,64.0,29.72,South,185,17.0,-999.0,66,-99.99,,,-99.99,,2013-04-18 15:02:00,
2013-04-18 10:12:00,76.0,64.0,29.72,South,185,17.0,-999.0,66,-99.99,,,-99.99,,2013-04-18 15:12:00,
2013-04-18 10:22:00,77.0,64.0,29.72,SSE,155,18.0,-999.0,64,-99.99,,,-99.99,,2013-04-18 15:22:00,
2013-04-18 10:33:00,77.0,63.0,29.72,South,178,17.0,-999.0,63,-99.99,,,-99.99,,2013-04-18 15:33:00,
2013-04-18 10:42:00,79.0,63.0,29.73,South,176,18.0,-999.0,58,-99.99,,,-99.99,,2013-04-18 15:42:00,
2013-04-18 10:53:00,79.0,63.0,29.73,South,176,18.0,-999.0,58,-99.99,,,-99.99,,2013-04-18 15:53:00,
2013-04-18 11:03:00,77.0,61.0,29.74,SSW,207,21.0,-999.0,58,-99.99,,,-99.99,,2013-04-18 16:03:00,
2013-04-18 11:13:00,79.0,63.0,29.73,SW,223,16.0,-999.0,58,-99.99,,,-99.99,,2013-04-18 16:13:00,
2013-04-18 11:23:00,79.0,63.0,29.73,SW,223,16.0,-999.0,58,-99.99,,,-99.99,,2013-04-18 16:23:00,
2013-04-18 11:33:00,78.0,62.0,29.74,South,186,19.0,-999.0,57,-99.99,,,-99.99,,2013-04-18 16:33:00,
2013-04-18 11:42:00,78.0,62.0,29.72,SSW,203,20.0,-999.0,57,-99.99,,,-99.99,,2013-04-18 16:42:00,
2013-04-18 11:53:00,78.0,62.0,29.72,SSW,203,20.0,-999.0,57,-99.99,,,-99.99,,2013-04-18 16:53:00,
2013-04-18 12:02:00,79.0,61.0,29.72,SSW,196,18.0,-999.0,55,-99.99,,,-99.99,,2013-04-18 17:02:00,
2013-04-18 12:12:00,78.0,62.0,29.71,SSW,195,19.0,-999.0,58,-99.99,,,-99.99,,2013-04-18 17:12:00,
2013-04-18 12:22:00,78.0,62.0,29.71,SSW,195,19.0,-999.0,58,-99.99,,,-99.99,,2013-04-18 17:22:00,
2013-04-18 12:33:00,78.0,62.0,29.71,SSW,200,17.0,-999.0,59,-99.99,,,-99.99,,2013-04-18 17:33:00,
2013-04-18 12:42:00,77.0,62.0,29.71,SSW,207,14.0,-999.0,60,-99.99,,,-99.99,,2013-04-18 17:42:00,
2013-04-18 12:52:00,77.0,62.0,29.71,SSW,207,14.0,-999.0,60,-99.99,,,-99.99,,2013-04-18 17:52:00,
2013-04-18 13:02:00,77.0,62.0,29.71,SW,236,15.0,-999.0,60,-99.99,,,-99.99,,2013-04-18 18:02:00,
2013-04-18 13:12:00,77.0,62.0,29.70,SSW,200,20.0,-999.0,59,-99.99,,,-99.99,,2013-04-18 18:12:00,
2013-04-18 13:22:00,77.0,62.0,29.70,SSW,200,20.0,-999.0,59,-99.99,,,-99.99,,2013-04-18 18:22:00,
2013-04-18 13:32:00,78.0,63.0,29.69,South,183,15.0,-999.0,60,-99.99,,,-99.99,,2013-04-18 18:32:00,
2013-04-18 13:42:00,78.0,62.0,29.68,South,188,20.0,-999.0,57,-99.99,,,-99.99,,2013-04-18 18:42:00,
2013-04-18 13:52:00,78.0,62.0,29.68,South,188,20.0,-999.0,57,-99.99,,,-99.99,,2013-04-18 18:52:00,
2013-04-18 14:02:00,78.0,62.0,29.67,SSE,167,17.0,-999.0,57,-99.99,,,-99.99,,2013-04-18 19:02:00,
2013-04-18 14:12:00,78.0,62.0,29.67,SSE,167,17.0,-999.0,57,-99.99,,,-99.99,,2013-04-18 19:12:00,
2013-04-18 14:22:00,79.0,62.0,29.67,South,182,12.0,-999.0,56,-99.99,,,-99.99,,2013-04-18 19:22:00,
2013-04-18 14:32:00,78.0,61.0,29.67,SSE,160,16.0,-999.0,56,-99.99,,,-99.99,,2013-04-18 19:32:00,
2013-04-18 14:42:00,78.0,61.0,29.67,SSE,160,16.0,-999.0,56,-99.99,,,-99.99,,2013-04-18 19:42:00,
2013-04-18 14:53:00,78.0,62.0,29.67,South,173,16.0,-999.0,57,-99.99,,,-99.99,,2013-04-18 19:53:00,
2013-04-18 15:02:00,78.0,62.0,29.66,South,191,16.0,-999.0,57,-99.99,,,-99.99,,2013-04-18 20:02:00,
2013-04-18 15:12:00,78.0,62.0,29.66,South,191,16.0,-999.0,57,-99.99,,,-99.99,,2013-04-18 20:12:00,
2013-04-18 15:22:00,78.0,62.0,29.64,South,188,14.0,-999.0,57,-99.99,,,-99.99,,2013-04-18 20:22:00,
2013-04-18 15:32:00,78.0,62.0,29.64,SSE,161,15.0,-999.0,57,-99.99,,,-99.99,,2013-04-18 20:32:00,
2013-04-18 15:42:00,78.0,62.0,29.63,South,183,11.0,-999.0,58,-99.99,,,-99.99,,2013-04-18 20:42:00,
2013-04-18 15:52:00,78.0,62.0,29.63,South,183,11.0,-999.0,58,-99.99,,,-99.99,,2013-04-18 20:52:00,
2013-04-18 16:02:00,78.0,62.0,29.62,South,184,10.0,-999.0,57,-99.99,,,-99.99,,2013-04-18 21:02:00,
2013-04-18 16:12:00,77.0,61.0,29.61,SSW,202,12.0,-999.0,58,-99.99,,,-99.99,,2013-04-18 21:12:00,
2013-04-18 16:22:00,77.0,61.0,29.61,SSW,202,12.0,-999.0,58,-99.99,,,-99.99,,2013-04-18 21:22:00,
2013-04-18 16:32:00,77.0,61.0,29.61,SSW,207,9.0,-999.0,58,-99.99,,,-99.99,,2013-04-18 21:32:00,
2013-04-18 16:43:00,71.0,63.0,29.64,SSW,203,6.0,-999.0,75,-99.99,,,-99.99,,2013-04-18 21:43:00,
2013-04-18 16:53:00,71.0,63.0,29.64,SSW,203,6.0,-999.0,75,-99.99,,,-99.99,,2013-04-18 21:53:00,
2013-04-18 17:02:00,71.0,64.0,29.62,SW,223,3.0,-999.0,78,-99.99,,,-99.99,,2013-04-18 22:02:00,
2013-04-18 17:13:00,70.0,64.0,29.63,SSW,209,2.0,-999.0,82,-99.99,,,-99.99,,2013-04-18 22:13:00,
2013-04-18 17:22:00,70.0,64.0,29.63,SSW,209,2.0,-999.0,82,-99.99,,,-99.99,,2013-04-18 22:22:00,
2013-04-18 17:32:00,69.0,64.0,29.62,SSW,193,2.0,-999.0,84,-99.99,,,-99.99,,2013-04-18 22:32:00,
2013-04-18 17:42:00,69.0,65.0,29.62,SSE,155,1.0,-999.0,86,-99.99,,,-99.99,,2013-04-18 22:42:00,
2013-04-18 17:52:00,69.0,65.0,29.62,SSE,155,1.0,-999.0,86,-99.99,,,-99.99,,2013-04-18 22:52:00,
2013-04-18 18:03:00,69.0,65.0,29.62,South,174,1.0,-999.0,87,-99.99,,,-99.99,,2013-04-18 23:03:00,
2013-04-18 18:11:00,66.0,62.0,29.65,West,278,9.0,-999.0,86,-99.99,,,-99.99,,2013-04-18 23:11:00,
2013-04-18 18:21:00,66.0,62.0,29.65,West,278,9.0,-999.0,86,-99.99,,,-99.99,,2013-04-18 23:21:00,
2013-04-18 18:32:00,65.0,61.0,29.63,WNW,288,5.0,-999.0,88,-99.99,,,-99.99,,2013-04-18 23:32:00,
2013-04-18 18:42:00,60.0,56.0,29.65,WNW,299,16.0,-999.0,86,-99.99,,,-99.99,,2013-04-18 23:42:00,
2013-04-18 18:52:00,60.0,56.0,29.65,WNW,299,16.0,-999.0,86,-99.99,,,-99.99,,2013-04-18 23:52:00,
2013-04-18 19:01:00,57.0,53.0,29.65,WSW,257,17.0,-999.0,86,-99.99,,,-99.99,,2013-04-19 00:01:00,
2013-04-18 19:12:00,56.0,53.0,29.64,North,360,9.0,-999.0,89,-99.99,,,-99.99,,2013-04-19 00:12:00,
2013-04-18 19:21:00,56.0,53.0,29.64,North,360,9.0,-999.0,89,-99.99,,,-99.99,,2013-04-19 00:21:00,
2013-04-18 19:32:00,56.0,52.0,29.67,WNW,286,11.0,-999.0,88,-99.99,,,-99.99,,2013-04-19 00:32:00,
2013-04-18 19:42:00,56.0,52.0,29.67,WNW,286,11.0,-999.0,88,-99.99,,,-99.99,,2013-04-19 00:42:00,
2013-04-18 19:52:00,55.0,52.0,29.67,WNW,290,12.0,-999.0,89,-99.99,,,-99.99,,2013-04-19 00:52:00,
2013-04-18 20:01:00,53.0,50.0,29.69,NW,306,12.0,-999.0,88,-99.99,,,-99.99,,2013-04-19 01:01:00,
2013-04-18 20:11:00,53.0,50.0,29.69,NW,306,12.0,-999.0,88,-99.99,,,-99.99,,2013-04-19 01:11:00,
2013-04-18 20:21:00,52.0,49.0,29.70,WNW,292,14.0,-999.0,88,-99.99,,,-99.99,,2013-04-19 01:21:00,
2013-04-18 20:31:00,50.0,47.0,29.69,NW,311,12.0,-999.0,88,-99.99,,,-99.99,,2013-04-19 01:31:00,
2013-04-18 20:42:00,50.0,47.0,29.69,NW,311,12.0,-999.0,88,-99.99,,,-99.99,,2013-04-19 01:42:00,
2013-04-18 20:52:00,48.0,45.0,29.70,WNW,300,10.0,-999.0,88,-99.99,,,-99.99,,2013-04-19 01:52:00,
2013-04-18 21:01:00,48.0,45.0,29.75,WNW,295,14.0,-999.0,88,-99.99,,,-99.99,,2013-04-19 02:01:00,
2013-04-18 21:11:00,48.0,45.0,29.75,WNW,295,14.0,-999.0,88,-99.99,,,-99.99,,2013-04-19 02:11:00,
2013-04-18 21:21:00,47.0,44.0,29.73,WSW,245,15.0,-999.0,88,-99.99,,,-99.99,,2013-04-19 02:21:00,
2013-04-18 21:32:00,47.0,44.0,29.73,NW,312,13.0,-999.0,88,-99.99,,,-99.99,,2013-04-19 02:32:00,
2013-04-18 21:42:00,47.0,44.0,29.73,NW,312,13.0,-999.0,88,-99.99,,,-99.99,,2013-04-19 02:42:00,
2013-04-18 21:52:00,47.0,44.0,29.74,NW,310,9.0,-999.0,88,-99.99,,,-99.99,,2013-04-19 02:52:00,
2013-04-18 22:01:00,47.0,44.0,29.74,WNW,285,10.0,-999.0,88,-99.99,,,-99.99,,2013-04-19 03:01:00,
2013-04-18 22:11:00,47.0,44.0,29.74,WNW,285,10.0,-999.0,88,-99.99,,,-99.99,,2013-04-19 03:11:00,
2013-04-18 22:21:00,47.0,43.0,29.75,WNW,291,10.0,-999.0,87,-99.99,,,-99.99,,2013-04-19 03:21:00,
2013-04-18 22:32:00,47.0,43.0,29.77,WNW,290,10.0,-999.0,87,-99.99,,,-99.99,,2013-04-19 03:32:00,
2013-04-18 22:43:00,47.0,43.0,29.76,WNW,291,8.0,-999.0,85,-99.99,,,-99.99,,2013-04-19 03:43:00,
2013-04-18 22:53:00,47.0,43.0,29.76,WNW,291,8.0,-999.0,85,-99.99,,,-99.99,,2013-04-19 03:53:00,
2013-04-18 23:03:00,47.0,42.0,29.77,WNW,284,11.0,-999.0,84,-99.99,,,-99.99,,2013-04-19 04:03:00,
2013-04-18 23:13:00,47.0,42.0,29.77,WNW,284,11.0,-999.0,84,-99.99,,,-99.99,,2013-04-19 04:13:00,
2013-04-18 23:23:00,47.0,41.0,29.78,West,276,10.0,-999.0,81,-99.99,,,-99.99,,2013-04-19 04:23:00,
2013-04-18 23:33:00,47.0,41.0,29.80,NW,317,11.0,-999.0,80,-99.99,,,-99.99,,2013-04-19 04:33:00,
2013-04-18 23:43:00,46.0,38.0,29.79,WNW,290,12.0,-999.0,74,-99.99,,,-99.99,,2013-04-19 04:43:00,
2013-04-18 23:52:00,46.0,38.0,29.79,WNW,290,12.0,-999.0,74,-99.99,,,-99.99,,2013-04-19 04:52:00,